Regional Weather Roundup
Issued by NWS

Home | Current Version | Previous Version | Text Only | Print | Product List | Glossary On
Versions: 1 2 3 4 5 6 7 8 9 10 11 12 13 14 15 16 17 18 19 20 21 22 23 24 25 26 27 28 29 30 31 32 33 34 35 36 37 38 39 40 41 42 43 44 45 46 47 48 49 50
000
ASUS42 KTBW 170617
RWRFL
FLORIDA REGIONAL WEATHER ROUNDUP
NATIONAL WEATHER SERVICE TAMPA BAY RUSKIN FL
100 AM EST SUN FEB 17 2019

NOTE: "FAIR" INDICATES FEW OR NO CLOUDS BELOW 12,000 FEET WITH NO
SIGNIFICANT WEATHER AND/OR OBSTRUCTIONS TO VISIBILITY.

FLZ001>010-012>015-112-114-115-170700-
PANHANDLE FLORIDA

CITY           SKY/WX    TMP DP  RH WIND       PRES   REMARKS
PENSACOLA      CLOUDY    67  64  90 S5        29.84R
PENSACOLA NAS  CLOUDY    66  66 100 S7        29.83R
MILTON NAS     CLOUDY    63  63 100 S6        29.84  FOG
CRESTVIEW      FOG       64  63  96 CALM      29.86R VSB 1/4
DUKE FIELD     CLOUDY    64  64 100 S5        29.84R
VALPARAISO     LGT RAIN  64  64 100 CALM      29.83S
MARY ESTHER    CLOUDY    64  64 100 S5        29.82
PANAMA CITY    FOG       61  59  93 CALM      29.84F VSB 1/2
TYNDALL AFB    FOG       64  63  97 S9        29.85S VSB 3/8
APALACHICOLA   FOG       64  63  96 S5        29.87R VSB 1

STATION/POSITION SKY/WX   TEMP    WIND        PRES    WAVE   SWELL
                          AIR SEA DIR/SP/G            HT/PER HT/PER
                          (F)     (DEG/KT/KT) (MB)    (FT/S) (FT/S)
30.1N   87.6W              65     150/  6/  8 1010.5    2/ 6   2/ 6
29.2N   88.2W                     190/  8/ 10 1010.3S   2/ 5   2/ 5
PANAMA CITY BEAC           63 62  120/  5/  5 1011.0F
TOWER C                    67     190/ 12/ 12 1011.7F

$$
FLZ011-016>038-118-127-128-134-139-239-170700-
NORTH FLORIDA

CITY           SKY/WX    TMP DP  RH WIND       PRES   REMARKS
MARIANNA       FOG       63  63 100 S5        29.85S VSB 3/4
TALLAHASSEE    FOG       65  65 100 S5        29.87S VSB 1/2
PERRY          CLOUDY    66  65  97 SW7       29.90R FOG
LIVE OAK       CLOUDY    66  66 100 CALM      29.89R
CROSS CITY     FOG       63  63  99 S3        29.90S VSB 1/4
LAKE CITY      CLOUDY    63  63 100 SW6       29.90S
GAINESVILLE    CLOUDY    68  64  87 SW7       29.93S
WILLISTON        N/A    N/A N/A N/A MISG        N/A
PALATKA        CLOUDY   N/A N/A N/A W7        29.91S
MAYPORT NAS    FAIR      65  63  93 SW7       29.89S
JACKSONVILLE   MOCLDY    63  61  93 SW6       29.88S
JAX NAS        MOCLDY    66  63  90 VRB3      29.91R
JAX CECIL      MOCLDY    63  61  94 CALM      29.90S
FERNANDINA BEA FAIR      64  61  90 SW7       29.89R
ST AUGUSTINE   FAIR      63  62  97 SW3       29.91S
PALM COAST     FAIR      63  60  92 SW3       29.91S

STATION/POSITION SKY/WX   TEMP    WIND        PRES    WAVE   SWELL
                          AIR SEA DIR/SP/G            HT/PER HT/PER
                          (F)     (DEG/KT/KT) (MB)    (FT/S) (FT/S)
SHELL POINT      NOT AVBL
KEATON BEACH               65     180/  8/  9 1012.3S
CEDAR KEY                  65     200/  9/ 11 1012.7F
FERNANDINA                 66 61  220/  3/  6 1012.7R
30.7N   81.3W                 59                N/A     2/ 8
MAYPORT                    66 61  240/  8/ 10 1012.1R
31.4N   80.9W              61 58  210/  8/ 10 1011.4F   2/ 8   2/ 8
ST AUGUSTINE               64 58  230/  4/  5 1012.8R

$$
FLZ040-043>046-052-053-057-058-063-144-170700-
INTERIOR CENTRAL FLORIDA

CITY           SKY/WX    TMP DP  RH WIND       PRES   REMARKS
OCALA          FOG       60  60 100 CALM      29.92S VSB<1/4
LEESBURG       FAIR      63  62  97 CALM      29.93S
SANFORD        FAIR      66  63  90 S3        29.92S
ORLANDO EXEC   FAIR      67  64  90 CALM      29.92F
ORLANDO INTL   FAIR      63  61  93 S3        29.92F
KISSIMMEE      FAIR      62  61  96 S3        29.94S
WINTER HAVEN   FAIR      67  63  87 S6        29.94S
LAKELAND       FAIR      63  61  94 S5        29.93S
BARTOW         FAIR      63  61  94 CALM      29.92S
SEBRING        FAIR      62  61  94 S5        29.95R
OKEECHOBEE     FAIR      61  59  94 CALM      29.95S

$$
FLZ041-047-054-059-064-141-147-170700-
EAST CENTRAL FLORIDA

CITY           SKY/WX    TMP DP  RH WIND       PRES   REMARKS
DAYTONA BEACH  FAIR      63  62  97 SW6       29.92R
DELAND         FAIR      61  59  94 CALM      29.92R
JFK SPACE CTR  FAIR      62  60  93 CALM      29.92S
CAPE CANAVERAL FAIR      61  59  93 CALM      29.92S
PATRICK AFB    FAIR      66  65  96 SW5       29.92F
MELBOURNE      FAIR      65  60  84 S3        29.93S
VERO BEACH     FAIR      63  59  87 SW3       29.94S
FT PIERCE      FAIR      64  59  83 SW5       29.95S
STUART         FAIR      68  63  83 CALM      29.97S

STATION/POSITION SKY/WX   TEMP    WIND        PRES    WAVE   SWELL
                          AIR SEA DIR/SP/G            HT/PER HT/PER
                          (F)     (DEG/KT/KT) (MB)    (FT/S) (FT/S)
28.5N   80.2W              66     210/  4/  4 1013.9F   2/ 8   2/ 8
28.9N   78.5W              76 75  250/ 10/ 14 1013.7S   4/ 9   3/ 9
TRIDENT PIER               67 65  210/  3/  3 1014.4F
28.4N   80.5W                 64                N/A     1/ 8

$$
FLZ050-056-061-142-242-148-248-149-249-151-251-155-255-
160-260-170700-
WEST CENTRAL FLORIDA

CITY           SKY/WX    TMP DP  RH WIND       PRES   REMARKS
CRYSTAL RIVER  MOCLDY    64  63  94 CALM      29.92R
INVERNESS      FAIR      61  61 100 CALM      29.93R FOG
BROOKSVILLE    FAIR      61  60  97 CALM      29.92F FOG
CLEARWATER AIR FAIR      66  63  88 S3        29.91S
ST PETE CLEARW FAIR      66  62  87 S7        29.91S
TAMPA INTL     FAIR      66  62  87 CALM      29.92S
TAMPA EXEC     FAIR      61  59  94 CALM      29.93S FOG
PLANT CITY     FAIR      66  63  88 S3        29.94S
MACDILL AFB    FAIR      67  63  87 S6        29.91S
PETER O KNIGHT CLOUDY   N/A N/A N/A S6        29.92S
ST PETERSBURG  FAIR      68  65  90 S7        29.90S
SARASOTA       FAIR      65  63  93 SE5       29.90F
VENICE         FAIR      68  68 100 S7        29.93S

STATION/POSITION SKY/WX   TEMP    WIND        PRES    WAVE   SWELL
                          AIR SEA DIR/SP/G            HT/PER HT/PER
                          (F)     (DEG/KT/KT) (MB)    (FT/S) (FT/S)
27.3N   84.2W                 71                N/A     2/ 5
CLEARWATER BEACH           70 66  150/  6/ 10 1012.9S
MIDDLE TAMPA BAY           66     180/  7/  8 1013.0F
VENICE                     69 67  150/  8/  9   N/A

$$
FLZ066-069-070-075>078-162-262-165-265-170700-
SOUTHWEST FLORIDA AND KEYS

CITY           SKY/WX    TMP DP  RH WIND       PRES   REMARKS
PUNTA GORDA    FAIR      63  62  97 SE5       29.94F FOG
FT MYERS       FAIR      66  65  96 SE3       29.93S
SOUTHWEST INTL FAIR      65  65 100 CALM      29.93F FOG
NAPLES         FAIR      67  66  97 CALM      29.93F FOG
MARCO ISLAND   MOCLDY    64  64 100 E3        29.95F FOG
IMMOKALEE      FAIR      64  63  94 CALM      29.93S FOG
MARATHON       FAIR      78  69  73 S6        29.95F
KEY WEST NAS   FAIR      76  68  76 SE8       29.94F
KEY WEST INTL  FAIR      77  68  73 SE10      29.95F

STATION/POSITION SKY/WX   TEMP    WIND        PRES    WAVE   SWELL
                          AIR SEA DIR/SP/G            HT/PER HT/PER
                          (F)     (DEG/KT/KT) (MB)    (FT/S) (FT/S)
NAPLES                     70 71  100/  3/  5 1013.5F
26.0N   85.6W              78 80  170/ 14/ 17 1011.3F   3/ 5
DRY TORTUGAS               76     170/  8/ 10 1013.5F
SAND KEY                   77                 1014.0F
SOMBRERO KEY               77                 1013.6F
LONG KEY                   75 74  170/  5/  6 1014.3F
MOLASSES REEF              77 78  220/  7/  8 1014.7F

$$
FLZ067-068-071>074-168-172>174-170700-
SOUTHEAST FLORIDA

CITY           SKY/WX    TMP DP  RH WIND       PRES   REMARKS
W PALM BEACH   FAIR      69  64  84 W5        29.96S
FT LAUDER-EXEC FAIR      69  67  93 CALM      29.96S
FT LAUDERDALE  FAIR      69  68  96 CALM      29.95S
POMPANO BEACH  FAIR      70  66  87 CALM      29.96S
PEMBROKE PINES FAIR      67  64  90 CALM      29.97S
OPA LOCKA      FAIR      69  65  86 CALM      29.96F
MIAMI          FAIR      70  69  97 S3        29.96F
WEST KENDALL   FAIR      68  67  96 CALM      29.95F
HOMESTEAD      FAIR      66  64  96 CALM      29.95S

STATION/POSITION SKY/WX   TEMP    WIND        PRES    WAVE   SWELL
                          AIR SEA DIR/SP/G            HT/PER HT/PER
                          (F)     (DEG/KT/KT) (MB)    (FT/S) (FT/S)
PORT EVERGLADES            72     200/  1/  2 1014.4F
VIRGINIA KEY               73 75   CALM  /  1 1013.8F
LAKE WORTH                 71 76  250/  3/  4 1015.5R
FOWEY ROCKS                75 75  190/  9/ 10 1014.9F
SETTLEMENT POINT           77     240/ 14/ 16 1014.5R

$$




USA.gov is the U.S. government's official web portal to all federal, state and local government web resources and services.